Hourly Data Report for October 03, 2013

All times are specified in Local Standard Time (LST). Add 1 hour to adjust for Daylight Saving Time where and when it is observed.

SAINT JOHN A
NEW BRUNSWICK

45°18'58.000" N
65°53'24.000" W
108.80 m
8104901
71609
YSJ

Download Data

Hourly Data (October 2013)
Hourly Data Report for October 3, 2013
Temp Definition
°C
Dew Point Temp Definition
°C
Rel Hum Definition
%
Wind Dir Definition
10's deg

Wind Spd Definition
km/h
Visibility Definition
km
Stn Press Definition
kPa
Hmdx Definition


Wind Chill Definition


Weather Definition


TIME
00:00 Legend Double Dagger 15.6 9.1 65 28 16 24.1 99.48     LegendNANA
01:00 Legend Double Dagger 15.1 8.6 65 31 13 24.1 99.55     LegendNANA
02:00 Legend Double Dagger 14.1 8.6 69 31 17 24.1 99.64     Clear
03:00 Legend Double Dagger 12.5 8.2 75 30 9 24.1 99.68     LegendNANA
04:00 Legend Double Dagger 13.0 7.7 70 29 13 24.1 99.74     LegendNANA
05:00 Legend Double Dagger 12.4 7.3 71 28 12 24.1 99.79     Clear
06:00 Legend Double Dagger 11.4 7.5 77 27 8 24.1 99.86     LegendNANA
07:00 Legend Double Dagger 12.2 7.5 73 28 14 24.1 99.92     LegendNANA
08:00 Legend Double Dagger 14.3 7.2 62 30 21 24.1 99.98     Clear
09:00 Legend Double Dagger 16.4 6.6 52 30 24 24.1 100.02     LegendNANA
10:00 Legend Double Dagger 17.2 6.2 48 31 33 24.1 100.02     LegendNANA
11:00 Legend Double Dagger 18.3 6.9 47 32 22 24.1 100.02     Clear
12:00 Legend Double Dagger 18.8 5.8 42 30 29 24.1 99.98     LegendNANA
13:00 Legend Double Dagger 20.1 5.9 39 31 26 24.1 99.93     LegendNANA
14:00 Legend Double Dagger 20.5 5.5 37 30 27 24.1 99.92     Mainly Clear
15:00 Legend Double Dagger 20.7 5.7 37 29 21 24.1 99.91     LegendNANA
16:00 Legend Double Dagger 20.2 6.0 39 29 23 24.1 99.95     LegendNANA
17:00 Legend Double Dagger 19.5 5.7 40 30 19 24.1 99.99     Mainly Clear
18:00 Legend Double Dagger 16.9 6.8 51 27 10 24.1 100.01     LegendNANA
19:00 Legend Double Dagger 15.1 7.0 58 25 8 24.1 100.06     LegendNANA
20:00 Legend Double Dagger 12.8 6.9 67 31 9 24.1 100.12     Clear
21:00 Legend Double Dagger 12.4 6.3 66 31 8 24.1 100.18     LegendNANA
22:00 Legend Double Dagger 8.6 6.1 84 2 1 24.1 100.23     LegendNANA
23:00 Legend Double Dagger 8.2 6.8 91 22 3 24.1 100.28     Mainly Clear

Notes on Data Quality.

Legend

  • E = Estimated
  • M = Missing
  • NA = Not Available
  • ‡ = Partner data that is not subject to review by the National Climate Archives
Date modified: